LOT7002 DAAG-EPBY

Flight info

Callsign LOT7002
Flight time 2h 48m
Altitude 34000
Route BOUR1B BOURI UG26 REQIN DCT BUKID DCT NEGAT DCT OMEDA DCT RAPUR DCT TORTU DCT ERTEV DCT IBUPU DCT MALUG/N0447F350 DCT UPEGU DCT DIMEX/N0448F340 DCT DENKO/N0450F330 N858 DEKUT Z96 LUXUD
Aircraft E75S/M-SDE2E3FGIJ1RWY/HB1

Departure

Time 2026-05-04 13:43
Airport Houari Boumediene Airport (DAAG)

Arrival

Time 2026-05-04 16:31
Airport Ignacy Jan Paderewski Bydgoszcz Airport (EPBY)
Time Latitude Longitude Altitude Speed Heading
2026-05-04 12:42 36.69447 3.19800 66 ft 0 kts 271°
2026-05-04 13:34 36.69447 3.19801 64 ft 0 kts 271°
2026-05-04 13:35 36.69446 3.19805 64 ft 2 kts 271°
2026-05-04 13:35 36.69446 3.19824 64 ft 2 kts 271°
2026-05-04 13:36 36.69445 3.19843 64 ft 2 kts 271°
2026-05-04 13:36 36.69445 3.19861 65 ft 1 kts 271°
2026-05-04 13:36 36.69445 3.19874 65 ft 2 kts 258°
2026-05-04 13:36 36.69452 3.19890 65 ft 2 kts 224°
2026-05-04 13:37 36.69465 3.19899 65 ft 2 kts 193°
2026-05-04 13:37 36.69472 3.19900 65 ft 1 kts 176°
2026-05-04 13:37 36.69477 3.19900 65 ft 0 kts 180°
2026-05-04 13:39 36.69474 3.19900 65 ft 2 kts 181°
2026-05-04 13:39 36.69432 3.19898 65 ft 10 kts 181°
2026-05-04 13:39 36.69340 3.19896 65 ft 14 kts 174°
2026-05-04 13:39 36.69302 3.20001 66 ft 16 kts 91°
2026-05-04 13:40 36.69299 3.20155 67 ft 20 kts 91°
2026-05-04 13:40 36.69294 3.20356 67 ft 25 kts 91°
2026-05-04 13:40 36.69289 3.20571 69 ft 25 kts 91°
2026-05-04 13:40 36.69284 3.20791 70 ft 24 kts 91°
2026-05-04 13:41 36.69268 3.20921 70 ft 11 kts 133°
2026-05-04 13:41 36.69190 3.20960 71 ft 12 kts 163°
2026-05-04 13:41 36.69129 3.20978 71 ft 5 kts 201°
2026-05-04 13:42 36.69124 3.20807 70 ft 39 kts 272°
2026-05-04 13:42 36.69139 3.20179 67 ft 102 kts 272°
2026-05-04 13:42 36.69166 3.19054 68 ft 153 kts 272°
2026-05-04 13:42 36.69179 3.17681 450 ft 161 kts 273°
2026-05-04 13:43 36.69217 3.16284 994 ft 166 kts 274°
2026-05-04 13:43 36.69284 3.14809 1447 ft 178 kts 274°
2026-05-04 13:43 36.69449 3.13211 1801 ft 195 kts 295°
2026-05-04 13:43 36.70386 3.11984 2208 ft 207 kts 340°
2026-05-04 13:44 36.71810 3.11945 2802 ft 210 kts 25°
2026-05-04 13:44 36.72874 3.13128 3383 ft 213 kts 59°
2026-05-04 13:44 36.73667 3.14830 3598 ft 239 kts 62°
2026-05-04 13:44 36.74506 3.16727 3828 ft 262 kts 62°
2026-05-04 13:45 36.75412 3.18779 4226 ft 277 kts 62°
2026-05-04 13:45 36.76351 3.20889 4819 ft 283 kts 62°
2026-05-04 13:45 36.77551 3.22828 5458 ft 287 kts 47°
2026-05-04 13:45 36.78938 3.24612 6092 ft 290 kts 42°
2026-05-04 13:46 36.80663 3.25903 6692 ft 293 kts 23°
2026-05-04 13:46 36.82571 3.26916 7270 ft 297 kts 22°
2026-05-04 13:46 36.84499 3.27808 7807 ft 301 kts 15°
2026-05-04 13:46 36.86509 3.28600 8376 ft 305 kts 16°
2026-05-04 13:47 36.88539 3.29416 8931 ft 309 kts 15°
2026-05-04 13:47 36.90625 3.30264 9486 ft 313 kts 15°
2026-05-04 13:47 36.92705 3.31112 9960 ft 320 kts 15°
2026-05-04 13:47 36.94873 3.31997 10106 ft 335 kts 15°
2026-05-04 13:48 36.97115 3.32916 10474 ft 343 kts 15°
2026-05-04 13:48 36.99417 3.33861 10972 ft 347 kts 14°
2026-05-04 13:48 37.01704 3.34799 11451 ft 350 kts 14°
2026-05-04 13:48 37.04049 3.35762 11955 ft 353 kts 14°
2026-05-04 13:49 37.06374 3.36717 12432 ft 356 kts 13°
2026-05-04 13:49 37.08741 3.37690 12924 ft 358 kts 13°
2026-05-04 13:49 37.11144 3.38678 13375 ft 361 kts 13°
2026-05-04 13:49 37.13536 3.39662 13808 ft 364 kts 13°
2026-05-04 13:50 37.15889 3.40857 14210 ft 373 kts 30°
2026-05-04 13:50 37.17777 3.43147 14629 ft 381 kts 54°
2026-05-04 13:50 37.19233 3.45915 15083 ft 383 kts 56°
2026-05-04 13:50 37.20674 3.48690 15500 ft 385 kts 56°
2026-05-04 13:51 37.22149 3.51528 15915 ft 388 kts 56°
2026-05-04 13:51 37.23622 3.54367 16334 ft 390 kts 56°
2026-05-04 13:51 37.25097 3.57212 16732 ft 392 kts 56°
2026-05-04 13:51 37.26599 3.60109 17127 ft 395 kts 56°
2026-05-04 13:52 37.29584 3.65879 17911 ft 399 kts 56°
2026-05-04 13:52 37.31111 3.68833 18286 ft 401 kts 57°
2026-05-04 13:52 37.32623 3.71761 18678 ft 403 kts 57°
2026-05-04 13:53 37.34156 3.74734 19043 ft 405 kts 56°
2026-05-04 13:53 37.35691 3.77712 19421 ft 406 kts 57°
2026-05-04 13:53 37.37225 3.80692 19796 ft 408 kts 57°
2026-05-04 13:54 37.40308 3.86686 20509 ft 411 kts 56°
2026-05-04 13:54 37.41854 3.89697 20872 ft 413 kts 56°
2026-05-04 13:54 37.44981 3.95794 21568 ft 416 kts 56°
2026-05-04 13:55 37.46548 3.98854 21902 ft 418 kts 56°
2026-05-04 13:55 37.49711 4.05039 22547 ft 422 kts 56°
2026-05-04 13:55 37.51276 4.08104 22882 ft 423 kts 56°
2026-05-04 13:56 37.52879 4.11243 23196 ft 425 kts 56°
2026-05-04 13:56 37.54481 4.14387 23499 ft 427 kts 56°
2026-05-04 13:56 37.57691 4.20695 24099 ft 431 kts 56°
2026-05-04 13:57 37.59294 4.23847 24403 ft 433 kts 56°
2026-05-04 13:57 37.60917 4.27043 24702 ft 434 kts 56°
2026-05-04 13:58 37.65834 4.36745 25554 ft 441 kts 56°
2026-05-04 13:58 37.69118 4.43241 26142 ft 443 kts 56°
2026-05-04 13:58 37.70785 4.46543 26411 ft 445 kts 56°
2026-05-04 13:59 37.72456 4.49857 26687 ft 447 kts 56°
2026-05-04 13:59 37.74116 4.53152 26961 ft 448 kts 56°
2026-05-04 13:59 37.77454 4.59786 27513 ft 451 kts 56°
2026-05-04 14:00 37.79139 4.63142 27782 ft 453 kts 56°
2026-05-04 14:00 37.82517 4.69877 28289 ft 456 kts 57°
2026-05-04 14:00 37.84217 4.73272 28498 ft 458 kts 57°
2026-05-04 14:01 37.85931 4.76698 28738 ft 460 kts 57°
2026-05-04 14:01 37.87642 4.80123 28976 ft 462 kts 57°
2026-05-04 14:01 37.91055 4.86964 29489 ft 464 kts 57°
2026-05-04 14:02 37.92793 4.90453 29713 ft 466 kts 57°
2026-05-04 14:02 37.94552 4.93851 29893 ft 467 kts 51°
2026-05-04 14:02 37.96672 4.96963 30101 ft 467 kts 45°
2026-05-04 14:02 37.98912 4.99996 30316 ft 469 kts 45°
2026-05-04 14:03 38.01261 5.02873 30527 ft 469 kts 41°
2026-05-04 14:03 38.03633 5.05720 30727 ft 471 kts 41°
2026-05-04 14:03 38.06006 5.08595 30945 ft 473 kts 41°
2026-05-04 14:03 38.08380 5.11479 31176 ft 473 kts 41°
2026-05-04 14:04 38.13124 5.17253 31700 ft 473 kts 41°
2026-05-04 14:04 38.15502 5.20152 32005 ft 472 kts 41°
2026-05-04 14:04 38.17863 5.23033 32283 ft 472 kts 41°
2026-05-04 14:05 38.22581 5.28797 32822 ft 471 kts 41°
2026-05-04 14:05 38.24935 5.31677 33085 ft 471 kts 41°
2026-05-04 14:05 38.27280 5.34549 33346 ft 471 kts 41°
2026-05-04 14:06 38.29655 5.37462 33595 ft 471 kts 41°
2026-05-04 14:06 38.31986 5.40321 33881 ft 470 kts 41°
2026-05-04 14:06 38.34327 5.43196 33982 ft 466 kts 41°
2026-05-04 14:07 38.39082 5.49044 34014 ft 482 kts 41°
2026-05-04 14:07 38.43944 5.55036 34014 ft 493 kts 41°
2026-05-04 14:08 38.48911 5.61171 34011 ft 492 kts 41°
2026-05-04 14:08 38.53810 5.67233 34003 ft 491 kts 41°
2026-05-04 14:09 38.61140 5.76325 34009 ft 493 kts 41°
2026-05-04 14:10 38.68501 5.85484 34010 ft 493 kts 42°
2026-05-04 14:10 38.73414 5.91611 34012 ft 493 kts 42°
2026-05-04 14:11 38.78296 5.97713 34013 ft 493 kts 42°
2026-05-04 14:11 38.85633 6.06907 34015 ft 492 kts 42°
2026-05-04 14:12 38.90545 6.13078 34016 ft 492 kts 42°
2026-05-04 14:13 38.97915 6.22273 34014 ft 489 kts 37°
2026-05-04 14:13 39.03653 6.26889 34023 ft 480 kts 18°
2026-05-04 14:14 39.09883 6.29823 34019 ft 477 kts 15°
2026-05-04 14:14 39.19298 6.34397 34012 ft 479 kts 15°
2026-05-04 14:15 39.31804 6.40519 34013 ft 481 kts 15°
2026-05-04 14:16 39.41224 6.45146 34014 ft 480 kts 15°
2026-05-04 14:17 39.50653 6.49790 34011 ft 479 kts 15°
2026-05-04 14:18 39.60008 6.54411 34011 ft 480 kts 15°
2026-05-04 14:19 39.72599 6.60653 34014 ft 482 kts 15°
2026-05-04 14:19 39.78855 6.63762 34012 ft 482 kts 15°
2026-05-04 14:20 39.85151 6.66899 34004 ft 483 kts 16°
2026-05-04 14:20 39.91416 6.70026 34009 ft 483 kts 16°
2026-05-04 14:21 40.00867 6.74754 34005 ft 484 kts 16°
2026-05-04 14:21 40.07167 6.77915 34003 ft 484 kts 16°
2026-05-04 14:22 40.13487 6.81091 34000 ft 485 kts 16°
2026-05-04 14:22 40.19790 6.84265 34000 ft 485 kts 16°
2026-05-04 14:23 40.29231 6.89031 34003 ft 486 kts 16°
2026-05-04 14:24 40.35563 6.92236 34002 ft 486 kts 16°
2026-05-04 14:24 40.41905 6.95452 34004 ft 485 kts 16°
2026-05-04 14:25 40.48198 6.98650 34008 ft 484 kts 15°
2026-05-04 14:25 40.57688 7.03484 34000 ft 487 kts 15°
2026-05-04 14:26 40.64034 7.06726 33998 ft 486 kts 15°
2026-05-04 14:26 40.70367 7.09967 33997 ft 487 kts 15°
2026-05-04 14:27 40.76700 7.13214 33996 ft 486 kts 15°
2026-05-04 14:27 40.82998 7.16451 34001 ft 486 kts 15°
2026-05-04 14:28 40.89222 7.20195 34010 ft 493 kts 27°
2026-05-04 14:28 40.94546 7.26037 34013 ft 501 kts 41°
2026-05-04 14:29 41.04615 7.38993 34015 ft 501 kts 40°
2026-05-04 14:30 41.09659 7.45470 34016 ft 502 kts 40°
2026-05-04 14:31 41.17189 7.55169 34022 ft 501 kts 40°
2026-05-04 14:32 41.27233 7.68156 34009 ft 502 kts 41°
2026-05-04 14:32 41.32259 7.74677 34006 ft 502 kts 41°
2026-05-04 14:33 41.37250 7.81167 34012 ft 501 kts 40°
2026-05-04 14:33 41.42695 7.86869 34027 ft 493 kts 24°
2026-05-04 14:34 41.48944 7.90479 34017 ft 485 kts 15°
2026-05-04 14:34 41.55229 7.93828 34017 ft 484 kts 15°
2026-05-04 14:35 41.61548 7.97232 34019 ft 485 kts 15°
2026-05-04 14:35 41.67820 8.00620 34014 ft 484 kts 15°
2026-05-04 14:36 41.74117 8.04027 34015 ft 486 kts 15°
2026-05-04 14:36 41.80387 8.07428 34013 ft 484 kts 15°
2026-05-04 14:37 41.86659 8.10838 34018 ft 484 kts 15°
2026-05-04 14:37 41.92891 8.14232 34016 ft 484 kts 15°
2026-05-04 14:38 41.99126 8.17635 34016 ft 485 kts 15°
2026-05-04 14:38 42.05408 8.21072 34023 ft 482 kts 15°
2026-05-04 14:39 42.11649 8.24493 34008 ft 481 kts 15°
2026-05-04 14:39 42.17867 8.27908 34011 ft 480 kts 15°
2026-05-04 14:40 42.27262 8.33083 34018 ft 480 kts 15°
2026-05-04 14:40 42.33523 8.36541 34024 ft 481 kts 15°
2026-05-04 14:41 42.39732 8.39977 34026 ft 481 kts 15°
2026-05-04 14:42 42.52166 8.46879 34035 ft 480 kts 15°
2026-05-04 14:42 42.58343 8.50320 34031 ft 478 kts 15°
2026-05-04 14:43 42.64544 8.53781 34036 ft 477 kts 15°
2026-05-04 14:43 42.70702 8.57224 34035 ft 478 kts 16°
2026-05-04 14:44 42.76875 8.60685 34039 ft 476 kts 15°
2026-05-04 14:44 42.83033 8.64144 34040 ft 475 kts 15°
2026-05-04 14:45 42.89209 8.67620 34028 ft 477 kts 17°
2026-05-04 14:45 42.95347 8.71082 34030 ft 477 kts 17°
2026-05-04 14:46 43.01495 8.74558 34027 ft 475 kts 17°
2026-05-04 14:46 43.07667 8.78055 34034 ft 474 kts 17°
2026-05-04 14:47 43.13814 8.81545 34033 ft 473 kts 16°
2026-05-04 14:47 43.19926 8.85023 34038 ft 473 kts 17°
2026-05-04 14:48 43.26018 8.88496 34032 ft 474 kts 17°
2026-05-04 14:48 43.32056 8.91948 34044 ft 474 kts 17°
2026-05-04 14:49 43.38208 8.95090 34056 ft 464 kts
2026-05-04 14:49 43.44519 8.95870 34059 ft 451 kts 353°
2026-05-04 14:50 43.50827 8.95837 34049 ft 452 kts 353°
2026-05-04 14:50 43.57109 8.95835 34057 ft 451 kts 354°
2026-05-04 14:51 43.63380 8.97196 34061 ft 469 kts 13°
2026-05-04 14:51 43.69272 9.01182 34067 ft 480 kts 31°
2026-05-04 14:52 43.74271 9.07360 34067 ft 481 kts 38°
2026-05-04 14:52 43.79399 9.13334 34069 ft 481 kts 36°
2026-05-04 14:53 43.84507 9.19124 34074 ft 478 kts 36°
2026-05-04 14:53 43.89655 9.24959 34071 ft 478 kts 36°
2026-05-04 14:54 43.94778 9.30780 34081 ft 476 kts 36°
2026-05-04 14:54 43.99888 9.36598 34083 ft 476 kts 36°
2026-05-04 14:55 44.04984 9.42414 34081 ft 475 kts 36°
2026-05-04 14:55 44.10036 9.48192 34082 ft 474 kts 36°
2026-05-04 14:56 44.15143 9.54049 34089 ft 474 kts 36°
2026-05-04 14:56 44.20227 9.59890 34085 ft 473 kts 36°
2026-05-04 14:57 44.25287 9.65719 34087 ft 473 kts 37°
2026-05-04 14:57 44.30350 9.71563 34084 ft 473 kts 37°
2026-05-04 14:58 44.35372 9.77375 34083 ft 472 kts 37°
2026-05-04 14:58 44.40438 9.83251 34081 ft 472 kts 37°
2026-05-04 14:59 44.45463 9.89093 34079 ft 471 kts 37°
2026-05-04 15:00 44.52979 9.97856 34081 ft 469 kts 37°
2026-05-04 15:00 44.57977 10.03699 34088 ft 469 kts 37°
2026-05-04 15:01 44.65456 10.12471 34078 ft 469 kts 37°
2026-05-04 15:01 44.70440 10.18332 34078 ft 468 kts 37°
2026-05-04 15:02 44.75405 10.24184 34066 ft 468 kts 37°
2026-05-04 15:02 44.80418 10.30108 34062 ft 469 kts 37°
2026-05-04 15:03 44.85378 10.35982 34058 ft 470 kts 37°
2026-05-04 15:03 44.90359 10.41895 34050 ft 470 kts 37°
2026-05-04 15:04 44.95328 10.47808 34043 ft 469 kts 37°
2026-05-04 15:04 45.00327 10.53770 34039 ft 468 kts 37°
2026-05-04 15:05 45.05275 10.59685 34036 ft 469 kts 37°
2026-05-04 15:05 45.10229 10.65622 34035 ft 469 kts 38°
2026-05-04 15:06 45.15185 10.71575 34033 ft 469 kts 38°
2026-05-04 15:07 45.22709 10.80444 34031 ft 467 kts 37°
2026-05-04 15:07 45.27678 10.86261 34036 ft 466 kts 37°
2026-05-04 15:08 45.32649 10.92096 34036 ft 466 kts 37°
2026-05-04 15:08 45.37626 10.97950 34040 ft 467 kts 37°
2026-05-04 15:09 45.42617 11.03835 34042 ft 466 kts 37°
2026-05-04 15:09 45.47568 11.09688 34043 ft 465 kts 38°
2026-05-04 15:10 45.55010 11.18509 34044 ft 465 kts 38°
2026-05-04 15:11 45.62445 11.27354 34042 ft 465 kts 38°
2026-05-04 15:11 45.67389 11.33254 34046 ft 464 kts 38°
2026-05-04 15:12 45.72332 11.39165 34051 ft 463 kts 38°
2026-05-04 15:12 45.77256 11.45070 34063 ft 462 kts 39°
2026-05-04 15:13 45.82164 11.50967 34074 ft 464 kts 39°
2026-05-04 15:13 45.87078 11.56888 34090 ft 463 kts 39°
2026-05-04 15:14 45.92005 11.62838 34089 ft 463 kts 39°
2026-05-04 15:14 45.96903 11.68766 34082 ft 462 kts 39°
2026-05-04 15:15 46.01794 11.74700 34090 ft 462 kts 40°
2026-05-04 15:15 46.06710 11.80679 34093 ft 462 kts 40°
2026-05-04 15:16 46.14027 11.89606 34100 ft 462 kts 40°
2026-05-04 15:17 46.21372 11.98599 34103 ft 462 kts 40°
2026-05-04 15:17 46.29483 12.08568 34107 ft 462 kts 40°
2026-05-04 15:18 46.33544 12.13574 34109 ft 460 kts 40°
2026-05-04 15:19 46.40829 12.22579 34108 ft 462 kts 40°
2026-05-04 15:19 46.48137 12.31648 34111 ft 461 kts 40°
2026-05-04 15:20 46.52994 12.37693 34117 ft 461 kts 40°
2026-05-04 15:20 46.57836 12.43734 34119 ft 461 kts 40°
2026-05-04 15:21 46.62675 12.49785 34117 ft 460 kts 40°
2026-05-04 15:21 46.68320 12.56864 34344 ft 464 kts 40°
2026-05-04 15:22 46.70848 12.59806 34627 ft 466 kts 33°
2026-05-04 15:22 46.72666 12.61425 34807 ft 466 kts 26°
2026-05-04 15:22 46.78399 12.65734 35550 ft 463 kts 26°
2026-05-04 15:23 46.81215 12.67895 36017 ft 459 kts 26°
2026-05-04 15:23 46.84042 12.70071 36246 ft 460 kts 26°
2026-05-04 15:23 46.86869 12.72252 36490 ft 459 kts 26°
2026-05-04 15:23 46.90626 12.75155 36844 ft 458 kts 26°
2026-05-04 15:24 46.96217 12.79482 37117 ft 457 kts 26°
2026-05-04 15:24 47.00878 12.83098 37134 ft 455 kts 26°
2026-05-04 15:25 47.06469 12.87445 37131 ft 455 kts 26°
2026-05-04 15:26 47.15759 12.94690 37121 ft 455 kts 26°
2026-05-04 15:26 47.23192 13.00508 37118 ft 455 kts 26°
2026-05-04 15:27 47.31585 13.07100 37098 ft 456 kts 26°
2026-05-04 15:28 47.39921 13.13670 37079 ft 456 kts 26°
2026-05-04 15:29 47.49218 13.21027 37062 ft 457 kts 26°
2026-05-04 15:30 47.68758 13.36587 36995 ft 457 kts 26°
2026-05-04 15:31 47.76163 13.42518 36959 ft 457 kts 26°
2026-05-04 15:32 47.91050 13.54501 36928 ft 457 kts 26°
2026-05-04 15:34 48.03993 13.64983 36906 ft 456 kts 26°
2026-05-04 15:34 48.12360 13.71792 36911 ft 458 kts 26°
2026-05-04 15:35 48.21675 13.79403 36908 ft 458 kts 26°
2026-05-04 15:36 48.30036 13.86260 36915 ft 457 kts 26°
2026-05-04 15:36 48.35580 13.90822 36923 ft 458 kts 26°
2026-05-04 15:37 48.41166 13.95429 36925 ft 457 kts 26°
2026-05-04 15:37 48.46699 14.00005 36924 ft 457 kts 26°
2026-05-04 15:38 48.52258 14.04614 36931 ft 457 kts 26°
2026-05-04 15:38 48.57811 14.09229 36942 ft 457 kts 26°
2026-05-04 15:39 48.62438 14.13083 36950 ft 457 kts 26°
2026-05-04 15:40 48.71696 14.20820 36957 ft 457 kts 26°
2026-05-04 15:40 48.77234 14.25464 36957 ft 456 kts 26°
2026-05-04 15:41 48.82755 14.30105 36953 ft 457 kts 26°
2026-05-04 15:41 48.88318 14.34794 36950 ft 457 kts 26°
2026-05-04 15:42 48.93847 14.39466 36947 ft 457 kts 26°
2026-05-04 15:42 48.99381 14.44154 36941 ft 456 kts 26°
2026-05-04 15:43 49.04946 14.48575 36942 ft 453 kts 18°
2026-05-04 15:43 49.10836 14.52065 36944 ft 453 kts 18°
2026-05-04 15:44 49.16704 14.55598 36941 ft 453 kts 18°
2026-05-04 15:44 49.22514 14.59109 36941 ft 453 kts 18°
2026-05-04 15:45 49.28409 14.62682 36941 ft 453 kts 18°
2026-05-04 15:45 49.34230 14.66218 36939 ft 453 kts 19°
2026-05-04 15:46 49.40064 14.69771 36941 ft 452 kts 19°
2026-05-04 15:46 49.45925 14.73350 36946 ft 453 kts 19°
2026-05-04 15:47 49.51768 14.76927 36946 ft 454 kts 19°
2026-05-04 15:47 49.57596 14.80504 36945 ft 453 kts 19°
2026-05-04 15:48 49.63444 14.84103 36943 ft 454 kts 19°
2026-05-04 15:48 49.72250 14.89539 36943 ft 456 kts 19°
2026-05-04 15:49 49.78103 14.93164 36940 ft 455 kts 19°
2026-05-04 15:49 49.83967 14.96806 36938 ft 455 kts 19°
2026-05-04 15:50 49.89825 15.00454 36932 ft 455 kts 19°
2026-05-04 15:50 49.95717 15.04132 36936 ft 456 kts 19°
2026-05-04 15:51 50.01557 15.07787 36936 ft 456 kts 19°
2026-05-04 15:51 50.07423 15.11469 36943 ft 455 kts 19°
2026-05-04 15:52 50.13290 15.15160 36942 ft 456 kts 19°
2026-05-04 15:52 50.19145 15.18854 36945 ft 456 kts 19°
2026-05-04 15:53 50.25008 15.22563 36942 ft 456 kts 19°
2026-05-04 15:53 50.30899 15.26299 36947 ft 456 kts 19°
2026-05-04 15:54 50.36732 15.30010 36945 ft 456 kts 19°
2026-05-04 15:54 50.42621 15.33765 36953 ft 456 kts 19°
2026-05-04 15:55 50.48497 15.37522 36959 ft 457 kts 19°
2026-05-04 15:55 50.54332 15.41262 36959 ft 456 kts 19°
2026-05-04 15:56 50.60152 15.45006 37029 ft 442 kts 18°
2026-05-04 15:56 50.62963 15.46817 36916 ft 425 kts 18°
2026-05-04 15:56 50.65700 15.48579 36954 ft 433 kts 18°
2026-05-04 15:57 50.71374 15.52244 36978 ft 450 kts 18°
2026-05-04 15:57 50.77204 15.56023 36977 ft 458 kts 18°
2026-05-04 15:58 50.83053 15.59823 36963 ft 456 kts 19°
2026-05-04 15:58 50.88926 15.63649 36949 ft 456 kts 18°
2026-05-04 15:59 50.94758 15.67458 36937 ft 455 kts 19°
2026-05-04 15:59 51.00595 15.71282 36925 ft 456 kts 19°
2026-05-04 16:00 51.05482 15.74490 36919 ft 456 kts 19°
2026-05-04 16:00 51.12293 15.78974 36911 ft 457 kts 19°
2026-05-04 16:01 51.18135 15.82833 36907 ft 457 kts 19°
2026-05-04 16:01 51.23983 15.86706 36900 ft 457 kts 19°
2026-05-04 16:02 51.29821 15.90583 36898 ft 457 kts 19°
2026-05-04 16:03 51.38605 15.96435 36896 ft 457 kts 19°
2026-05-04 16:03 51.44460 16.00351 36896 ft 458 kts 19°
2026-05-04 16:04 51.50313 16.04275 36896 ft 458 kts 19°
2026-05-04 16:04 51.59117 16.10199 36893 ft 458 kts 19°
2026-05-04 16:05 51.64930 16.14225 36891 ft 459 kts 21°
2026-05-04 16:06 51.73607 16.20680 36891 ft 459 kts 21°
2026-05-04 16:07 51.85159 16.29291 36894 ft 460 kts 21°
2026-05-04 16:08 51.96752 16.37981 36890 ft 460 kts 21°
2026-05-04 16:08 52.05313 16.44431 36892 ft 449 kts 20°
2026-05-04 16:09 52.10955 16.48696 36892 ft 449 kts 20°
2026-05-04 16:10 52.22277 16.57292 36895 ft 449 kts 20°
2026-05-04 16:11 52.33563 16.65908 36894 ft 450 kts 21°
2026-05-04 16:12 52.41991 16.72378 36541 ft 435 kts 21°
2026-05-04 16:12 52.50257 16.78744 33443 ft 449 kts 21°
2026-05-04 16:13 52.55904 16.83110 30914 ft 457 kts 21°
2026-05-04 16:13 52.61617 16.87542 28318 ft 460 kts 22°
2026-05-04 16:14 52.67293 16.91957 26263 ft 448 kts 22°
2026-05-04 16:14 52.72829 16.96275 24311 ft 437 kts 22°
2026-05-04 16:15 52.80895 17.02587 21808 ft 425 kts 22°
2026-05-04 16:16 52.86187 17.06744 20677 ft 412 kts 22°
2026-05-04 16:16 52.93845 17.12778 19062 ft 399 kts 22°
2026-05-04 16:17 52.98882 17.16760 17994 ft 393 kts 22°
2026-05-04 16:18 53.06228 17.22586 16445 ft 387 kts 22°
2026-05-04 16:18 53.08545 17.24720 15931 ft 390 kts 37°
2026-05-04 16:19 53.11061 17.36964 14252 ft 383 kts 93°
2026-05-04 16:19 53.10903 17.45709 13221 ft 378 kts 93°
2026-05-04 16:20 53.11538 17.58507 11762 ft 371 kts 75°
2026-05-04 16:20 53.12866 17.66582 10796 ft 350 kts 76°
2026-05-04 16:21 53.14697 17.77749 9475 ft 321 kts 75°
2026-05-04 16:22 53.15828 17.84682 8697 ft 306 kts 75°
2026-05-04 16:22 53.17480 17.94858 7514 ft 301 kts 75°
2026-05-04 16:23 53.18664 18.04733 6864 ft 268 kts 83°
2026-05-04 16:24 53.19626 18.16336 6084 ft 251 kts 83°
2026-05-04 16:25 53.20069 18.22076 5418 ft 248 kts 93°
2026-05-04 16:26 53.15100 18.27122 4059 ft 226 kts 174°
2026-05-04 16:26 53.12026 18.23704 3130 ft 198 kts 258°
2026-05-04 16:27 53.11536 18.19273 2585 ft 189 kts 262°
2026-05-04 16:28 53.11018 18.13310 2020 ft 153 kts 264°
2026-05-04 16:28 53.10646 18.08690 1332 ft 123 kts 263°
2026-05-04 16:29 53.10113 18.02959 701 ft 126 kts 263°
2026-05-04 16:30 53.09754 17.98662 241 ft 115 kts 262°
2026-05-04 16:31 53.09618 17.97053 241 ft 35 kts 262°
2026-05-04 16:31 53.09400 17.96864 241 ft 13 kts 172°
2026-05-04 16:32 53.09396 17.97510 241 ft 32 kts 82°
2026-05-04 16:33 53.09464 17.98319 241 ft 36 kts 82°
2026-05-04 16:33 53.09524 17.99047 240 ft 37 kts 82°
2026-05-04 16:34 53.09573 17.99610 240 ft 7 kts 85°
2026-05-04 16:34 53.09545 17.99670 240 ft 7 kts 161°
2026-05-04 16:35 53.09457 17.99694 240 ft 0 kts 173°